This is the latest recevied weather packets stored in our database for station/object ZL2ASC-13. If no packets are shown the sender has not sent any weather packets the latest 10 day(s).
| Time | Temp. | Humidity | Pressure | Rain* | Wind** | Luminosity | Snow |
|---|---|---|---|---|---|---|---|
| 1787445866 | 14.44° C | 56% | 1011.2 hPa | 0 mm | - | - | - |
| 1787445806 | 14.44° C | 55% | 1011.2 hPa | 0 mm | - | - | - |
| 1787445746 | 14.44° C | 57% | 1011.3 hPa | 0 mm | - | - | - |
| 1787445686 | 14.44° C | 52% | 1011.3 hPa | 0 mm | - | - | - |
| 1787445626 | 14.44° C | 55% | 1011.2 hPa | 0 mm | - | - | - |
| 1787445566 | 14.44° C | 54% | 1011.2 hPa | 0 mm | - | - | - |
| 1787445506 | 14.44° C | 57% | 1011.3 hPa | 0 mm | - | - | - |
| 1787445445 | 14.44° C | 56% | 1011.2 hPa | 0 mm | - | - | - |
| 1787445385 | 14.44° C | 55% | 1011.2 hPa | 0 mm | - | - | - |
| 1787445325 | 14.44° C | 58% | 1011.2 hPa | 0 mm | - | - | - |
| 1787445265 | 14.44° C | 59% | 1011.2 hPa | 0 mm | - | - | - |
| 1787445205 | 14.44° C | 58% | 1011.2 hPa | 0 mm | - | - | - |
| 1787445145 | 14.44° C | 59% | 1011.4 hPa | 0 mm | - | - | - |
| 1787445085 | 14.44° C | 62% | 1011.2 hPa | 0 mm | - | - | - |
| 1787445025 | 15° C | 61% | 1011.3 hPa | 0 mm | - | - | - |
| 1787444965 | 14.44° C | 60% | 1011.4 hPa | 0 mm | - | - | - |
| 1787444905 | 14.44° C | 60% | 1011.4 hPa | 0 mm | - | - | - |
| 1787444845 | 14.44° C | 60% | 1011.3 hPa | 0 mm | - | - | - |
| 1787444785 | 14.44° C | 60% | 1011.4 hPa | 0 mm | - | - | - |
| 1787444725 | 15° C | 60% | 1011.3 hPa | 0 mm | - | - | - |
| 1787444665 | 15° C | 60% | 1011.4 hPa | 0 mm | - | - | - |
| 1787444605 | 14.44° C | 61% | 1011.4 hPa | 0 mm | - | - | - |
| 1787444545 | 15° C | 60% | 1011.4 hPa | 0 mm | - | - | - |
| 1787444485 | 15° C | 61% | 1011.4 hPa | 0 mm | - | - | - |
| 1787444425 | 14.44° C | 61% | 1011.3 hPa | 0 mm | - | - | - |
* Rain latest hour (hover to see other rain measurements)
** Current wind speed in m/s (hover to see current wind gust speed)